Location: Los Gatos B&B
(42.6926°N, 77.0646°W)
Time: 23:41:27
(UTC-05:00)

Amateur Radio Satellites - All Passes

Search period start: 02 March 2015 23:11
Search period end: 03 March 2015 23:11
Location: Los Gatos B&B, 42.6926°N, 77.0646°W

Satellite Date Start Highest point End Downlink Frequencies (MHz)
Time Altitude Azimuth
QB50P1 02 Mar 23:23:35 23:27:50 83° 284° (WNW) 23:32:02 145.935-145.965
ITUPSAT 1 02 Mar 23:25:28 23:27:25 13° 61° (ENE) 23:29:36 437.325
QB50P2 02 Mar 23:27:28 23:31:42 74° 285° (WNW) 23:35:54 145.880/145.840
TIGRISAT 02 Mar 23:30:06 23:34:07 40° 289° (WNW) 23:38:09 435.000
BUGSAT 1 02 Mar 23:33:34 23:37:46 86° 284° (WNW) 23:41:52 437.445
DUCHIFAT 1 02 Mar 23:42:35 23:46:42 51° 287° (WNW) 23:50:46 145.980
ANTELSAT 02 Mar 23:44:00 23:47:44 29° 291° (WNW) 23:51:26 437.575/2403.000
RS-15 02 Mar 23:53:59 00:04:55 86° 302° (WNW) 00:16:05 29.354- 29.394
DANDE 03 Mar 00:02:55 00:09:47 72° 99° (E) 00:14:56 436.750
POLYITAN 1 03 Mar 00:03:15 00:07:00 30° 290° (WNW) 00:10:40 437.675
POPSAT HIP 1 03 Mar 00:03:43 00:07:27 30° 290° (WNW) 00:11:08 437.405
CUBEBUG 1 03 Mar 00:12:08 00:13:05 10° 273° (W) 00:13:44 437.445
SWISSCUBE 03 Mar 00:24:04 00:28:40 49° 71° (ENE) 00:33:18 437.505
NANOSAT C BR1 03 Mar 00:27:30 00:30:28 18° 294° (WNW) 00:33:18 145.865
BEESAT 3 03 Mar 00:28:28 00:30:41 14° 37° (NE) 00:33:00 437.485
BEESAT 03 Mar 00:32:37 00:37:15 55° 72° (ENE) 00:41:57 436.000
CUSAT 1 03 Mar 00:32:47 00:38:53 52° 282° (WNW) 00:43:30 437.405
SPROUT 03 Mar 00:41:18 00:44:21 18° 269° (W) 00:47:17 437.525
KKS-1 03 Mar 00:43:49 00:46:11 15° 63° (ENE) 00:48:44 437.445
TISAT 1 03 Mar 00:44:44 00:47:42 18° 269° (W) 00:50:33 437.305
STARS 03 Mar 00:51:06 00:52:18 11° 61° (ENE) 00:53:43 437.465
AIST 2 03 Mar 00:53:26 00:54:16 11° 32° (NNE) 00:55:15 435.215
BEESAT 2 03 Mar 00:53:39 00:56:41 19° 42° (NE) 00:59:46 435.950
SO-50 03 Mar 00:57:34 01:01:25 28° 114° (ESE) 01:05:29 436.795
ITUPSAT 1 03 Mar 00:59:56 01:04:43 82° 255° (WSW) 01:09:34 437.325
YUBILEINY 03 Mar 01:15:47 01:20:30 16° 55° (NE) 01:25:44 435.215
Gurwin Techsat 1B 03 Mar 01:22:15 01:24:11 12° 86° (E) 01:26:27 435.225
ITAMSAT 1 03 Mar 01:47:04 01:51:30 28° 94° (E) 01:55:59 435.822/435.867
Oscar 19 03 Mar 01:47:50 01:53:01 84° 106° (ESE) 01:58:09 437.125/150
DANDE 03 Mar 01:49:17 01:53:19 17° 290° (WNW) 01:56:33 436.750
SWISSCUBE 03 Mar 02:03:28 02:06:51 19° 269° (W) 02:10:07 437.505
BEESAT 3 03 Mar 02:05:14 02:09:25 85° 234° (SW) 02:13:29 437.485
RS-15 03 Mar 02:09:31 02:19:08 33° 332° (NNW) 02:28:50 29.354- 29.394
BEESAT 03 Mar 02:12:26 02:15:32 16° 270° (W) 02:18:27 436.000
KKS-1 03 Mar 02:17:58 02:22:24 62° 259° (W) 02:26:52 437.445
STARS 03 Mar 02:23:45 02:28:11 82° 255° (WSW) 02:32:40 437.465
AIST 2 03 Mar 02:29:38 02:33:52 58° 53° (NE) 02:38:01 435.215
BEESAT 2 03 Mar 02:31:07 02:35:11 53° 241° (WSW) 02:39:10 435.950
HORYU 2 03 Mar 02:36:41 02:39:10 15° 90° (E) 02:41:50 437.375
SO-50 03 Mar 02:37:30 02:41:51 38° 313° (NW) 02:46:20 436.795
M-CUBED/EXP-1 PRIME 03 Mar 02:59:15 03:02:15 32° 66° (ENE) 03:05:24 437.505
Gurwin Techsat 1B 03 Mar 02:59:36 03:04:58 84° 285° (WNW) 03:10:18 435.225
AUBIESAT-1 03 Mar 03:01:03 03:03:59 30° 65° (ENE) 03:07:05 437.475
YUBILEINY 03 Mar 03:10:28 03:19:20 73° 80° (E) 03:28:10 435.215
JAS-2 03 Mar 03:18:01 03:23:30 22° 88° (E) 03:29:27 435.910
ITAMSAT 1 03 Mar 03:26:17 03:31:06 38° 292° (WNW) 03:35:51 435.822/435.867
AO-7 03 Mar 03:26:36 03:33:44 32° 95° (E) 03:41:01 29.400- 29.500
Oscar 19 03 Mar 03:29:09 03:31:45 14° 300° (WNW) 03:34:07 437.125/150
MOZHAYETS 4 03 Mar 03:31:25 03:35:37 38° 71° (ENE) 03:39:53
PCSat 03 Mar 03:57:56 04:01:12 16° 38° (NE) 04:04:38 145.827
AIST 2 03 Mar 04:09:35 04:12:04 15° 249° (WSW) 04:14:21 435.215
HORYU 2 03 Mar 04:11:52 04:16:14 53° 287° (WNW) 04:20:33 437.375
RS-15 03 Mar 04:27:45 04:36:09 23° 6° (N) 04:44:52 29.354- 29.394
PRISM 03 Mar 04:32:44 04:34:44 14° 63° (ENE) 04:36:55 437.425
M-CUBED/EXP-1 PRIME 03 Mar 04:35:40 04:37:28 13° 264° (W) 04:39:10 437.505
AUBIESAT-1 03 Mar 04:37:06 04:39:06 15° 263° (W) 04:41:01 437.475
Gurwin Techsat 1B 03 Mar 04:41:57 04:44:14 12° 301° (WNW) 04:46:15 435.225
JAS-2 03 Mar 05:01:47 05:09:13 79° 286° (WNW) 05:17:05 435.910
YUBILEINY 03 Mar 05:08:35 05:15:24 25° 278° (W) 05:21:53 435.215
MOZHAYETS 4 03 Mar 05:09:28 05:13:01 22° 268° (W) 05:16:30
Cubesat XI-IV 03 Mar 05:17:21 05:20:28 16° 89° (E) 05:23:49 437.490
AO-7 03 Mar 05:18:54 05:27:01 59° 294° (WNW) 05:35:04 29.400- 29.500
CUTE-I 03 Mar 05:25:49 05:29:29 19° 90° (E) 05:33:18 437.470
CUBESAT XI-V 03 Mar 05:30:58 05:35:31 53° 73° (ENE) 05:40:08 437.345
PCSat 03 Mar 05:40:07 05:45:35 80° 59° (ENE) 05:51:01 145.827
STRAND 1 03 Mar 05:45:40 05:50:36 50° 71° (ENE) 05:55:36 437.568
AIST 1 03 Mar 05:59:01 06:00:59 13° 85° (E) 06:03:11
PRISM 03 Mar 06:05:44 06:09:49 58° 259° (W) 06:13:56 437.425
RS-15 03 Mar 06:41:58 06:52:34 44° 38° (NE) 07:03:43 29.354- 29.394
JAS-2 03 Mar 06:48:36 06:53:24 18° 302° (WNW) 06:58:02 435.910
Cubesat XI-IV 03 Mar 06:55:48 07:01:10 68° 287° (WNW) 07:06:29 437.490
CUTE-I 03 Mar 07:04:44 07:10:01 57° 288° (WNW) 07:15:14 437.470
CUBESAT XI-V 03 Mar 07:10:17 07:13:22 17° 271° (W) 07:16:16 437.345
AO-7 03 Mar 07:14:01 07:18:16 15° 315° (NW) 07:22:09 29.400- 29.500
GONETS M04 03 Mar 07:23:40 07:30:04 23° 61° (ENE) 07:36:49
PCSat 03 Mar 07:25:27 07:28:23 14° 255° (WSW) 07:31:04 145.827
STRAND 1 03 Mar 07:26:15 07:30:09 21° 269° (W) 07:33:54 437.568
BRITE-PL 03 Mar 07:27:03 07:28:21 11° 85° (E) 07:29:55 437.365/2234.400
AIST 1 03 Mar 07:33:56 07:38:13 54° 282° (WNW) 07:42:33
ISS 03 Mar 07:36:52 07:36:55 10° 131° (SE) 07:37:07 145.825
DOVE 4 03 Mar 08:01:56 08:03:10 11° 87° (E) 08:04:39 437.250
HO-68 03 Mar 08:03:53 08:09:50 28° 93° (E) 08:15:56 435.675
AAUSAT CUBESAT 2 03 Mar 08:16:45 08:18:59 14° 90° (E) 08:21:24 437.432
COMPASS 1 03 Mar 08:19:17 08:22:07 18° 91° (E) 08:25:03 437.405
UNISAT 6 03 Mar 08:31:23 08:32:37 11° 62° (ENE) 08:34:06 437.425
Cubesat XI-IV 03 Mar 08:39:49 08:40:24 10° 304° (NW) 08:40:39 437.490
SEEDS 03 Mar 08:46:33 08:50:35 43° 98° (E) 08:54:39 437.485
CANX-2 03 Mar 08:50:31 08:54:46 63° 101° (E) 08:58:59 2200.000
TIGRISAT 03 Mar 08:54:15 08:57:16 19° 66° (ENE) 09:00:23 435.000
RS-15 03 Mar 08:54:29 09:05:49 68° 243° (WSW) 09:17:36 29.354- 29.394
DUCHIFAT 1 03 Mar 09:02:28 09:04:24 13° 63° (ENE) 09:06:30 145.980
BRITE-PL 03 Mar 09:03:04 09:07:38 65° 286° (WNW) 09:11:52 437.365/2234.400
GOMX 1 03 Mar 09:05:02 09:09:28 87° 96° (E) 09:13:40 467.674
ANTELSAT 03 Mar 09:07:29 09:11:06 26° 69° (ENE) 09:14:45 437.575/2403.000
UKube-1 03 Mar 09:08:04 09:09:02 11° 88° (E) 09:10:15 .
CUTE 1.7 + AOD 2 03 Mar 09:09:02 09:13:19 88° 276° (W) 09:17:34 437.475
ISS 03 Mar 09:09:40 09:12:54 85° 146° (SE) 09:16:08 145.825
O/OREOS (USA 219) 03 Mar 09:13:39 09:18:11 71° 111° (ESE) 09:22:46 437.305
GONETS M04 03 Mar 09:19:22 09:28:09 82° 264° (W) 09:36:56
UWE-3 03 Mar 09:19:46 09:22:50 20° 92° (E) 09:26:01 435.000/436.395/437.385
DELFI C3 03 Mar 09:20:20 09:23:49 27° 95° (E) 09:27:20 145.870
POLYITAN 1 03 Mar 09:21:55 09:25:08 21° 67° (ENE) 09:28:26 437.675
POPSAT HIP 1 03 Mar 09:22:10 09:25:21 21° 67° (ENE) 09:28:38 437.405
SO-50 03 Mar 09:27:38 09:32:10 35° 47° (NE) 09:36:43 436.795
DOVE 4 03 Mar 09:37:19 09:41:33 60° 286° (WNW) 09:45:38 437.250
CINEMA 3 03 Mar 09:40:59 09:45:11 78° 102° (ESE) 09:49:20 145.822/145.860
NANOSAT C BR1 03 Mar 09:44:19 09:48:12 35° 71° (ENE) 09:52:08 145.865
Oscar 11 03 Mar 09:47:19 09:51:39 70° 101° (ESE) 09:55:58 145.826/435.025
AAUSAT CUBESAT 2 03 Mar 09:50:56 09:54:59 49° 287° (WNW) 09:59:02 437.432
HO-68 03 Mar 09:50:58 09:58:00 58° 292° (WNW) 10:04:59 435.675
COMPASS 1 03 Mar 09:54:05 09:58:01 40° 288° (WNW) 10:01:57 437.405
CUBEBUG 2 03 Mar 09:57:45 10:01:53 66° 101° (E) 10:06:01 437.445
UNISAT 6 03 Mar 10:04:30 10:08:55 77° 257° (WSW) 10:13:16 437.425
DX 1 03 Mar 10:12:37 10:16:57 59° 101° (E) 10:21:16 434.975-435.025
QB50P1 03 Mar 10:16:52 10:21:09 82° 76° (ENE) 10:25:28 145.935-145.965
AISAT 03 Mar 10:18:58 10:22:49 29° 95° (E) 10:26:42 437.250
QB50P2 03 Mar 10:20:56 10:25:13 89° 256° (WSW) 10:29:32 145.880/145.840
CUBEBUG 1 03 Mar 10:21:44 10:23:48 13° 89° (E) 10:26:04 437.445
SEEDS 03 Mar 10:23:14 10:26:08 18° 294° (WNW) 10:28:56 437.485
BUGSAT 1 03 Mar 10:24:02 10:28:18 73° 74° (ENE) 10:32:36 437.445
50 SAT 03 Mar 10:24:15 10:27:45 30° 96° (E) 10:31:18 437.505
VELOX 1 03 Mar 10:28:02 10:32:07 35° 97° (E) 10:36:12 145.980
CANX-2 03 Mar 10:28:13 10:30:15 13° 296° (WNW) 10:32:07 2200.000
TIGRISAT 03 Mar 10:29:37 10:33:48 42° 262° (W) 10:37:55 435.000
HUMSAT D 03 Mar 10:33:15 10:37:19 58° 100° (E) 10:41:24 437.325/437.525
FUNcube-1 03 Mar 10:33:21 10:37:31 74° 284° (WNW) 10:41:39 145.935
ZACube-1 03 Mar 10:34:51 10:38:59 69° 285° (WNW) 10:43:08 437.345
DUCHIFAT 1 03 Mar 10:35:32 10:39:48 64° 259° (W) 10:44:03 145.980
UKube-1 03 Mar 10:41:25 10:45:46 70° 286° (WNW) 10:50:04 .
ANTELSAT 03 Mar 10:44:00 10:47:52 29° 264° (W) 10:51:38 437.575/2403.000
DANDE 03 Mar 10:45:39 10:48:08 32° 75° (ENE) 10:50:32 436.750
ESTCUBE 1 03 Mar 10:46:01 10:49:54 27° 94° (E) 10:53:49 437.505/2401.250
ISS 03 Mar 10:47:00 10:49:39 22° 344° (NNW) 10:52:17 145.825
O/OREOS (USA 219) 03 Mar 10:55:32 10:58:13 15° 310° (NW) 11:00:45 437.305
DELFI C3 03 Mar 10:55:33 10:58:58 25° 291° (WNW) 11:02:19 145.870
UWE-3 03 Mar 10:55:46 10:59:32 33° 289° (WNW) 11:03:15 435.000/436.395/437.385
POLYITAN 1 03 Mar 10:56:54 11:00:53 36° 263° (W) 11:04:50 437.675
POPSAT HIP 1 03 Mar 10:57:04 11:01:04 36° 263° (W) 11:05:02 437.405
SO-50 03 Mar 11:08:15 11:12:44 34° 244° (WSW) 11:17:08 436.795
RS-15 03 Mar 11:10:22 11:16:31 15° 261° (W) 11:21:45 29.354- 29.394
CUSAT 1 03 Mar 11:11:31 11:14:05 49° 262° (W) 11:16:40 437.405
GONETS M04 03 Mar 11:18:43 11:23:46 16° 283° (WNW) 11:28:18
NANOSAT C BR1 03 Mar 11:20:54 11:24:12 21° 267° (W) 11:27:25 145.865
Oscar 11 03 Mar 11:25:29 11:27:20 12° 297° (WNW) 11:29:00 145.826/435.025
Oscar 19 03 Mar 11:28:28 11:31:44 18° 62° (ENE) 11:35:09 437.125/150
CUBEBUG 2 03 Mar 11:36:33 11:38:08 12° 297° (WNW) 11:39:31 437.445
HO-68 03 Mar 11:41:36 11:44:24 12° 311° (NW) 11:46:49 435.675
DX 1 03 Mar 11:50:19 11:52:47 15° 297° (WNW) 11:55:04 434.975-435.025
AISAT 03 Mar 11:55:35 11:59:24 27° 292° (WNW) 12:03:07 437.250
CUBEBUG 1 03 Mar 11:56:17 12:00:39 58° 287° (WNW) 12:04:56 437.445
50 SAT 03 Mar 11:59:36 12:02:38 21° 292° (WNW) 12:05:35 437.505
BUGSAT 1 03 Mar 12:03:45 12:04:23 10° 273° (W) 12:04:43 437.445
VELOX 1 03 Mar 12:04:59 12:08:33 23° 293° (WNW) 12:12:00 145.980
HUMSAT D 03 Mar 12:10:41 12:12:42 13° 296° (WNW) 12:14:33 437.325/437.525
ESTCUBE 1 03 Mar 12:22:47 12:26:48 30° 291° (WNW) 12:30:44 437.505/2401.250
ISS 03 Mar 12:24:40 12:26:53 17° 4° (N) 12:29:06 145.825
SPROUT 03 Mar 12:25:41 12:30:01 76° 102° (ESE) 12:34:17 437.525
SWISSCUBE 03 Mar 12:25:55 12:27:33 12° 87° (E) 12:29:29 437.505
TISAT 1 03 Mar 12:27:09 12:31:23 70° 102° (ESE) 12:35:34 437.305
BEESAT 03 Mar 12:33:56 12:36:08 13° 88° (E) 12:38:36 436.000
AO-7 03 Mar 12:40:39 12:43:02 12° 42° (NE) 12:45:53 29.400- 29.500
Gurwin Techsat 1B 03 Mar 12:43:13 12:47:13 23° 64° (ENE) 12:51:22 435.225
ITUPSAT 1 03 Mar 13:00:28 13:04:22 25° 93° (E) 13:08:20 437.325
Oscar 19 03 Mar 13:05:33 13:10:39 63° 259° (WSW) 13:15:45 437.125/150
ITAMSAT 1 03 Mar 13:05:36 13:10:33 46° 70° (ENE) 13:15:34 435.822/435.867
HORYU 2 03 Mar 13:36:13 13:38:56 17° 64° (ENE) 13:41:47 437.375
ISS 03 Mar 14:00:59 14:04:00 34° 24° (NNE) 14:07:01 145.825
SWISSCUBE 03 Mar 14:01:15 14:06:05 76° 286° (WNW) 14:10:53 437.505
SPROUT 03 Mar 14:04:09 14:05:34 11° 298° (WNW) 14:06:45 437.525
TISAT 1 03 Mar 14:05:04 14:06:42 12° 298° (WNW) 14:08:06 437.305
KKS-1 03 Mar 14:08:59 14:12:33 24° 94° (E) 14:16:10 437.445
BEESAT 03 Mar 14:09:46 14:14:34 68° 286° (WNW) 14:19:19 436.000
STARS 03 Mar 14:14:04 14:16:55 17° 91° (E) 14:19:53 437.465
YUBILEINY 03 Mar 14:20:26 14:24:53 16° 77° (ENE) 14:29:55 435.215
Gurwin Techsat 1B 03 Mar 14:21:45 14:26:54 50° 261° (W) 14:32:05 435.225
AO-7 03 Mar 14:26:10 14:33:59 48° 63° (ENE) 14:41:53 29.400- 29.500
ITUPSAT 1 03 Mar 14:37:56 14:42:24 37° 290° (WNW) 14:46:48 437.325
ITAMSAT 1 03 Mar 14:46:10 14:50:19 23° 268° (W) 14:54:22 435.822/435.867
HORYU 2 03 Mar 15:10:55 15:15:15 52° 260° (W) 15:19:36 437.375
JAS-2 03 Mar 15:15:26 15:20:44 49° 69° (ENE) 15:26:43 435.910
ISS 03 Mar 15:37:25 15:40:25 34° 221° (SW) 15:43:24 145.825
KKS-1 03 Mar 15:45:16 15:49:16 33° 291° (WNW) 15:53:13 437.445
STARS 03 Mar 15:49:28 15:53:40 44° 288° (WNW) 15:57:49 437.465
BEESAT 3 03 Mar 16:01:23 16:03:37 15° 111° (ESE) 16:06:02 437.485
YUBILEINY 03 Mar 16:11:44 16:20:27 81° 96° (E) 16:29:18 435.215
M-CUBED/EXP-1 PRIME 03 Mar 16:13:49 16:17:35 30° 102° (ESE) 16:21:38 437.505
AUBIESAT-1 03 Mar 16:15:06 16:18:48 28° 101° (E) 16:22:45 437.475
AO-7 03 Mar 16:19:08 16:26:56 41° 262° (W) 16:34:39 29.400- 29.500
BEESAT 2 03 Mar 16:26:47 16:30:03 24° 114° (ESE) 16:33:26 435.950
Cubesat XI-IV 03 Mar 16:39:37 16:44:10 30° 66° (ENE) 16:48:49 437.490
CUTE-I 03 Mar 16:48:04 16:52:50 34° 68° (ENE) 16:57:41 437.470
VERMONT LUNAR 03 Mar 16:51:31 16:54:10 20° 154° (SSE) 16:56:51 437.305
JAS-2 03 Mar 17:01:48 17:06:19 24° 271° (W) 17:11:04 435.910
MOZHAYETS 4 03 Mar 17:02:27 17:07:07 84° 103° (ESE) 17:11:46
PHONESAT 2.4 03 Mar 17:02:39 17:04:39 14° 150° (SSE) 17:06:42 2401.200-2431.200
CUBESAT XI-V 03 Mar 17:28:54 17:30:54 13° 87° (E) 17:33:09 437.345
BEESAT 3 03 Mar 17:37:17 17:41:19 55° 307° (NW) 17:45:24 437.485
AIST 1 03 Mar 17:40:28 17:44:35 38° 76° (ENE) 17:48:43
O/OREOS (USA 219) 03 Mar 17:44:34 17:47:45 19° 52° (NE) 17:51:02 437.305
PRISM 03 Mar 17:48:33 17:51:29 19° 92° (E) 17:54:32 437.425
M-CUBED/EXP-1 PRIME 03 Mar 17:48:47 17:52:28 29° 295° (WNW) 17:56:19 437.505
AUBIESAT-1 03 Mar 17:49:52 17:53:38 31° 295° (WNW) 17:57:35 437.475
STRAND 1 03 Mar 17:56:47 17:59:44 16° 89° (E) 18:02:54 437.568
BEESAT 2 03 Mar 18:04:13 18:08:04 36° 311° (NW) 18:11:57 435.950
AIST 2 03 Mar 18:06:27 18:10:42 84° 303° (WNW) 18:15:03 435.215
YUBILEINY 03 Mar 18:11:47 18:18:31 23° 299° (WNW) 18:25:00 435.215
Cubesat XI-IV 03 Mar 18:19:10 18:24:10 38° 263° (W) 18:29:10 437.490
CUTE-I 03 Mar 18:28:07 18:32:56 33° 265° (W) 18:37:43 437.470
VERMONT LUNAR 03 Mar 18:28:18 18:31:41 51° 171° (S) 18:35:06 437.305
HO-68 03 Mar 18:34:11 18:39:35 25° 58° (ENE) 18:45:11 435.675
BRITE-PL 03 Mar 18:36:41 18:40:42 21° 66° (ENE) 18:44:44 437.365/2234.400
GOMX 1 03 Mar 18:37:57 18:40:33 14° 63° (ENE) 18:43:20 467.674
PHONESAT 2.4 03 Mar 18:39:08 18:42:35 42° 165° (SSE) 18:46:04 2401.200-2431.200
MOZHAYETS 4 03 Mar 18:42:04 18:43:46 12° 298° (WNW) 18:45:13
CUBESAT XI-V 03 Mar 19:04:14 19:08:57 68° 285° (WNW) 19:13:36 437.345
DOVE 4 03 Mar 19:07:13 19:10:29 18° 65° (ENE) 19:13:48 437.250
AAUSAT CUBESAT 2 03 Mar 19:09:56 19:11:22 12° 63° (ENE) 19:12:59 437.432
COMPASS 1 03 Mar 19:12:29 19:14:42 15° 65° (ENE) 19:17:04 437.405
AIST 1 03 Mar 19:18:52 19:22:01 19° 272° (W) 19:25:01
O/OREOS (USA 219) 03 Mar 19:23:05 19:27:34 53° 252° (WSW) 19:32:00 437.305
PRISM 03 Mar 19:23:13 19:27:11 39° 289° (WNW) 19:31:06 437.425
STRAND 1 03 Mar 19:34:22 19:39:30 65° 287° (WNW) 19:44:34 437.568
SEEDS 03 Mar 19:39:42 19:43:26 33° 71° (ENE) 19:47:14 437.485
CANX-2 03 Mar 19:44:16 19:48:20 49° 73° (ENE) 19:52:25 2200.000
AIST 2 03 Mar 19:47:46 19:50:03 14° 324° (NW) 19:52:13 435.215
ZACube-1 03 Mar 19:59:10 19:59:53 10° 63° (ENE) 20:00:50 437.345
CUTE 1.7 + AOD 2 03 Mar 20:02:34 20:06:45 72° 76° (ENE) 20:10:58 437.475
UKube-1 03 Mar 20:04:06 20:05:37 12° 62° (ENE) 20:07:20 .
VERMONT LUNAR 03 Mar 20:06:01 20:09:26 56° 187° (S) 20:12:52 437.305
DELFI C3 03 Mar 20:09:46 20:12:38 20° 67° (ENE) 20:15:37 145.870
GOMX 1 03 Mar 20:12:46 20:18:11 82° 259° (W) 20:23:19 467.674
BRITE-PL 03 Mar 20:13:17 20:18:52 59° 260° (W) 20:24:12 437.365/2234.400
PHONESAT 2.4 03 Mar 20:17:15 20:20:51 62° 182° (S) 20:24:27 2401.200-2431.200
UWE-3 03 Mar 20:18:04 20:21:16 21° 68° (ENE) 20:24:33 435.000/436.395/437.385
HO-68 03 Mar 20:19:36 20:26:44 72° 256° (WSW) 20:33:55 435.675
PCSat 03 Mar 20:22:19 20:27:40 64° 116° (ESE) 20:33:03 145.827
GONETS M04 03 Mar 20:27:08 20:33:26 24° 82° (E) 20:40:05
AAUSAT CUBESAT 2 03 Mar 20:42:25 20:46:32 67° 259° (W) 20:50:40 437.432
Oscar 11 03 Mar 20:42:44 20:46:57 59° 74° (ENE) 20:51:12 145.826/435.025
DOVE 4 03 Mar 20:42:50 20:47:55 59° 260° (W) 20:52:45 437.250
CINEMA 3 03 Mar 20:42:59 20:47:46 80° 76° (ENE) 20:52:21 145.822/145.860
COMPASS 1 03 Mar 20:45:58 20:50:02 52° 261° (W) 20:54:06 437.405
CUBEBUG 2 03 Mar 20:56:32 21:00:59 62° 75° (ENE) 21:05:18 437.445
DX 1 03 Mar 21:08:48 21:13:06 57° 73° (ENE) 21:17:27 434.975-435.025
50 SAT 03 Mar 21:12:11 21:15:13 22° 68° (ENE) 21:18:20 437.505
RS-15 03 Mar 21:12:28 21:18:15 17° 100° (E) 21:24:49 29.354- 29.394
SEEDS 03 Mar 21:16:08 21:19:22 21° 267° (W) 21:22:32 437.485
AISAT 03 Mar 21:17:44 21:21:38 30° 68° (ENE) 21:25:36 437.250
CUBEBUG 1 03 Mar 21:19:13 21:21:25 14° 63° (ENE) 21:23:49 437.445
CANX-2 03 Mar 21:22:10 21:24:38 15° 271° (W) 21:26:54 2200.000
HUMSAT D 03 Mar 21:25:58 21:29:58 45° 73° (ENE) 21:33:57 437.325/437.525
VELOX 1 03 Mar 21:26:30 21:30:34 36° 70° (ENE) 21:34:42 145.980
FUNcube-1 03 Mar 21:29:41 21:34:04 86° 255° (WSW) 21:38:21 145.935
ZACube-1 03 Mar 21:31:22 21:35:45 82° 257° (WSW) 21:40:03 437.345
UKube-1 03 Mar 21:36:53 21:41:14 75° 257° (WSW) 21:45:37 .
DELFI C3 03 Mar 21:43:57 21:47:39 34° 263° (W) 21:51:22 145.870
VERMONT LUNAR 03 Mar 21:44:06 21:47:02 25° 203° (SSW) 21:49:55 437.305
ESTCUBE 1 03 Mar 21:46:37 21:50:28 29° 68° (ENE) 21:54:24 437.505/2401.250
UWE-3 03 Mar 21:53:29 21:57:39 38° 263° (W) 22:01:42 435.000/436.395/437.385
PHONESAT 2.4 03 Mar 21:55:43 21:59:05 36° 198° (SSW) 22:02:25 2401.200-2431.200
UNISAT 6 03 Mar 21:56:31 21:59:38 20° 92° (E) 22:02:53 437.425
GOMX 1 03 Mar 21:56:39 21:57:05 10° 275° (W) 21:57:07 467.674
QB50P1 03 Mar 22:03:27 22:05:09 12° 88° (E) 22:07:03 145.935-145.965
PCSat 03 Mar 22:07:15 22:11:34 23° 316° (NW) 22:15:49 145.827
QB50P2 03 Mar 22:07:18 22:09:29 14° 89° (E) 22:11:50 145.880/145.840
HO-68 03 Mar 22:13:22 22:15:56 12° 277° (W) 22:17:54 435.675
TIGRISAT 03 Mar 22:20:27 22:24:21 34° 97° (E) 22:28:20 435.000
DUCHIFAT 1 03 Mar 22:20:43 22:23:42 19° 92° (E) 22:26:47 145.980
GONETS M04 03 Mar 22:20:51 22:29:32 73° 281° (W) 22:38:15
Oscar 11 03 Mar 22:21:34 22:23:36 13° 272° (W) 22:25:25 145.826/435.025
CINEMA 3 03 Mar 22:24:19 22:25:34 11° 273° (W) 22:26:30 145.822/145.860
ANTELSAT 03 Mar 22:34:31 22:38:43 51° 99° (E) 22:42:58 437.575/2403.000
CUBEBUG 2 03 Mar 22:36:01 22:38:08 13° 271° (W) 22:40:00 437.445
CUSAT 1 03 Mar 22:38:53 22:42:30 17° 94° (E) 22:45:49 437.405
POPSAT HIP 1 03 Mar 22:41:38 22:45:27 32° 96° (E) 22:49:16 437.405
POLYITAN 1 03 Mar 22:41:43 22:45:33 33° 96° (E) 22:49:23 437.675
50 SAT 03 Mar 22:46:35 22:50:07 29° 264° (W) 22:53:36 437.505
DX 1 03 Mar 22:47:26 22:49:48 14° 271° (W) 22:51:58 434.975-435.025
CUBEBUG 1 03 Mar 22:52:55 22:57:20 64° 259° (W) 23:01:48 437.445
AISAT 03 Mar 22:54:23 22:58:15 27° 265° (W) 23:02:05 437.250
HUMSAT D 03 Mar 23:03:25 23:06:02 16° 270° (W) 23:08:29 437.325/437.525
VELOX 1 03 Mar 23:03:40 23:07:16 23° 267° (W) 23:10:47 145.980
